Hourly Data Report for December 05, 2017

All times are specified in Local Standard Time (LST). Add 1 hour to adjust for Daylight Saving Time where and when it is observed.

LA RONGE A
SASKATCHEWAN

55°09'05.000" N
105°16'01.000" W
379.20 m
4064155
71922
YVC

Download Data

Hourly Data (December 2017)
Hourly Data Report for December 5, 2017
Temp Definition
°C
Dew Point Temp Definition
°C
Rel Hum Definition
%
Wind Dir Definition
10's deg

Wind Spd Definition
km/h
Visibility Definition
km
Stn Press Definition
kPa
Hmdx Definition


Wind Chill Definition


Weather Definition


TIME
00:00 Legend Double Dagger -24.8 -27.6 79 28 4 24.1 97.26   -29 Mainly Clear
01:00 Legend Double Dagger -25.6 -28.4 78 36 2 24.1 97.20   -28 LegendNANA
02:00 Legend Double Dagger -23.5 -26.1 80 25 5 24.1 97.15   -28 LegendNANA
03:00 Legend Double Dagger -22.7 -25.3 80 0 1 24.1 97.08   -24 Mostly Cloudy
04:00 Legend Double Dagger -22.8 -25.4 80 9 9 24.1 96.96   -30 LegendNANA
05:00 Legend Double Dagger -21.0 -23.4 81 24 3 24.1 96.92   -24 LegendNANA
06:00 Legend Double Dagger -20.3 -22.7 81 34 3 24.1 96.98   -23 Mostly Cloudy
07:00 Legend Double Dagger -19.8 -22.1 82 9 6 4.8 96.91   -25 Ice Crystals
08:00 Legend Double Dagger -18.8 -21.1 82 10 6 4.8 96.90   -24 Snow
09:00 Legend Double Dagger -18.6 -20.9 82 6 9 3.2 96.89   -25 Snow
10:00 Legend Double Dagger -18.0 -20.3 83 8 10 3.2 96.93   -25 Snow
11:00 Legend Double Dagger -17.4 -19.8 82 6 13 3.2 97.00   -25 Snow
12:00 Legend Double Dagger -17.5 -19.9 81 4 14 8.1 97.05   -26 Snow
13:00 Legend Double Dagger -17.4 -19.9 81 4 13 12.9 97.12   -25 Snow
14:00 Legend Double Dagger -16.8 -19.4 80 5 16 24.1 97.22   -25 Snow
15:00 Legend Double Dagger -16.3 -19.1 79 36 6 24.1 97.36   -21 Mostly Cloudy
16:00 Legend Double Dagger -17.2 -19.8 80 3 10 24.1 97.53   -24 LegendNANA
17:00 Legend Double Dagger -17.1 -19.6 81 1 8 24.1 97.66   -23 LegendNANA
18:00 Legend Double Dagger -18.0 -20.2 83 33 8 24.1 97.79   -24 Mostly Cloudy
19:00 Legend Double Dagger -18.1 -20.3 83 30 8 24.1 97.90   -24 LegendNANA
20:00 Legend Double Dagger -19.9 -22.1 83 31 12 24.1 98.03   -28 LegendNANA
21:00 Legend Double Dagger -20.7 -23.0 82 32 10 24.1 98.15   -28 Mostly Cloudy
22:00 Legend Double Dagger -21.6 -24.0 82 30 9 24.1 98.26   -29 LegendNANA
23:00 Legend Double Dagger -22.3 -24.7 82 31 7 24.1 98.35   -28 LegendNANA

Notes on Data Quality.

Legend

  • E = Estimated
  • M = Missing
  • NA = Not Available
  • ‡ = Partner data that is not subject to review by the National Climate Archives
Date modified: